Flag for Italy Weather past 2 weeks in Naples, Italy

46 °F

Light rain. Passing clouds.

Feels Like: 43 °F
Forecast: 48 / 58 °F
Wind: 7 mph from Northeast

Location: Naples / Capodichino

Current Time: Nov 26, 2015 at 5:25:56 PM

Latest Report: Nov 26, 2015 at 4:50 PM

Visibility: 5 mi

Pressure: 29.33 "Hg

Humidity: 87%

Dew point: 43 °F

Location of NaplesLocation

Historic Weather in Naples — Graph


Naples temperature yesterday

Maximum temperature yesterday: 59 °F (at 1:50 PM)
Minimum temperature yesterday: 46 °F (at 7:20 PM)
Average temperature yesterday: 54 °F

Past Weeks' High & Low Weather Summary

High70 °F (Nov 19, 1:20 PM)100% (Nov 12, 12:20 PM)30.39 "Hg (Nov 12, 12:20 PM)
Low32 °F (Nov 12, 12:20 PM)41% (Nov 22, 5:50 AM)29.33 "Hg (Nov 21, 5:20 PM)
Average58 °F76%30.02 "Hg
* Reported Nov 11 3:20 PM — Nov 26 3:50 PM, Naples, Weather by CustomWeather, © 2015

Note: Actual official high and low records may vary slightly from our data, if they occured in-between our weather recording intervals... More about our weather records


Naples weather history for previous 24 hours

Time TempWeatherWind HumidityBarometerVisibility
3:50 PM
Thu, Nov 26
48 °FLight rain. Partly sunny.6 mph82%29.36 "Hg5 mi
3:20 PM48 °FLight rain. Partly sunny.9 mph82%29.33 "Hg5 mi
2:50 PM48 °FLight rain. Partly sunny.12 mph82%29.33 "HgN/A
2:20 PM48 °FLight rain. Partly sunny.10 mph76%29.33 "HgN/A
1:50 PM48 °FPartly sunny.15 mph76%29.33 "HgN/A
1:20 PM48 °FLight rain. Partly sunny.15 mph76%29.33 "Hg4 mi
12:50 PM50 °FLight rain. Partly sunny.15 mph76%29.33 "Hg4 mi
12:20 PM50 °FLight rain. Partly sunny.14 mph71%29.33 "HgN/A
11:50 AM50 °FLight rain. Partly sunny.13 mph71%29.33 "HgN/A
11:20 AM50 °FLight rain. Partly sunny.10 mph82%29.33 "HgN/A
10:50 AM50 °FLight rain. Partly sunny.12 mph82%29.33 "Hg5 mi
10:20 AM48 °FLight rain. Partly sunny.13 mph87%29.33 "Hg5 mi
9:50 AM50 °FDrizzle. Partly sunny.12 mph82%29.33 "Hg5 mi
9:20 AM50 °FDrizzle. Partly sunny.9 mph76%29.36 "Hg5 mi
8:50 AM48 °FPartly sunny.7 mph87%29.36 "HgN/A
8:20 AM50 °FPartly sunny.10 mph82%29.36 "HgN/A
7:50 AM48 °FLight rain. Partly sunny.8 mph94%29.36 "Hg4 mi
7:20 AM48 °FLight rain. Partly sunny.7 mph94%29.36 "Hg5 mi
6:50 AM48 °FLight rain. Passing clouds.9 mph94%29.39 "Hg5 mi
6:20 AM48 °FLight rain. Passing clouds.10 mph87%29.39 "Hg5 mi
5:50 AM48 °FRain. Passing clouds.8 mph94%29.42 "Hg5 mi
5:20 AM48 °FRain. Passing clouds.10 mph94%29.42 "Hg4 mi
4:50 AM48 °FLight rain. Passing clouds.13 mph94%29.42 "HgN/A
3:50 AM50 °FLight rain. Passing clouds.5 mph88%29.42 "HgN/A
3:20 AM48 °FLight rain. Passing clouds.6 mph94%29.42 "HgN/A
2:50 AM48 °FLight rain. Passing clouds.3 mph94%29.45 "HgN/A
1:50 AM48 °FLight rain. Passing clouds.3 mph94%29.50 "HgN/A
1:20 AM50 °FLight rain. Passing clouds.2 mph88%29.50 "HgN/A
12:50 AM50 °FLight rain. Passing clouds.3 mph88%29.53 "HgN/A
12:20 AM50 °FLight rain. Passing clouds.5 mph82%29.56 "HgN/A
11:50 PM
Wed, Nov 25
50 °FLight rain. Passing clouds.6 mph82%29.56 "HgN/A
11:20 PM50 °FLight rain. Passing clouds.5 mph76%29.56 "HgN/A
10:50 PM52 °FLight rain. Passing clouds.1 mph67%29.59 "HgN/A
10:20 PM52 °FPassing clouds.2 mph62%29.59 "HgN/A
9:50 PM52 °FPassing clouds.2 mph62%29.59 "HgN/A
9:20 PM54 °FPassing clouds.5 mph54%29.62 "HgN/A
8:50 PM52 °FPassing clouds.5 mph58%29.62 "HgN/A
8:20 PM54 °FPassing clouds.3 mph51%29.62 "HgN/A
7:50 PM52 °FPassing clouds.6 mph58%29.62 "HgN/A
7:20 PM46 °FPassing clouds.8 mph71%29.65 "HgN/A
6:50 PM48 °FPassing clouds.7 mph66%29.65 "HgN/A
6:20 PM52 °FPassing clouds.3 mph67%29.65 "HgN/A
5:50 PM54 °FPassing clouds.3 mph63%29.65 "HgN/A
5:20 PM54 °FPassing clouds.7 mph63%29.65 "HgN/A
Weather by CustomWeather, © 2015

See weather overviewHow to use our weather pages